Weather History for Upernavik, Greenland

Change the Weather History Date:

Wednesday, February 13, 2013

  Actual Average Record
Temperature  
Mean Temperature -2 °F -  
Max Temperature 1 °F - - ()
Min Temperature -4 °F - - ()
Degree Days  
Heating Degree Days 66    
Moisture  
Dew Point -4 °F    
Average Humidity 89    
Maximum Humidity 92    
Minimum Humidity 78    
Precipitation  
Precipitation 0.00 in - - ()
Sea Level Pressure  
Sea Level Pressure 29.95 in    
Wind  
Wind Speed 12 mph ()    
Max Wind Speed 29 mph    
Max Gust Speed -    
Visibility 5.4 miles    
Events Snow    
T = Trace of Precipitation, MM = Missing Value Source: Averaged Metar Reports

Daily Weather History Graph

Daily Weather History Graph

Search for Another Location

Airport:

Trip Planner

Search our weather history database for the weather conditions in past years. The results will help you decide how hot, cold, wet, or windy it might be!

Date:

Astronomy

Feb. 13, 2013 Rise Set
Actual Time 9:58 AM WGT 4:00 PM WGT
Civil Twilight 8:31 AM WGT 5:27 PM WGT
Nautical Twilight 7:07 AM WGT 6:52 PM WGT
Astronomical Twilight 5:45 AM WGT 8:14 PM WGT
Moon 8:13 AM WGT (2/13) 11:40 PM WGT (2/13)
Length of Visible Light 8h 55m
Length of Day
6h 02m
Waxing Crescent, 13% of the Moon is Illuminated
Feb 13
Waxing Crescent
Feb 17
First Quarter
Feb 25
Full
Mar 4
Last Quarter
Mar 11
New

Hourly Weather History & Observations

Time (WGT) Temp. Windchill Dew Point Humidity Pressure Visibility Wind Dir Wind Speed Gust Speed Precip Events Conditions
12:20 AM -0.4 °F -18.4 °F -2.2 °F 92% 29.86 in 2.5 mi SW 12.7 mph - N/A Snow Light Snow
12:50 AM -0.4 °F -19.2 °F -2.2 °F 92% 29.86 in - WSW 13.8 mph - N/A Snow Light Snow
1:20 AM -0.4 °F -18.4 °F -2.2 °F 92% 29.86 in 3.1 mi SW 12.7 mph - N/A Snow Light Snow
1:50 AM -0.4 °F -17.6 °F -2.2 °F 92% 29.86 in 5.0 mi SW 11.5 mph - N/A Snow Light Snow
2:20 AM -0.4 °F -19.9 °F -2.2 °F 92% 29.89 in 3.7 mi SW 15.0 mph - N/A Snow Light Snow
2:50 AM -0.4 °F -19.9 °F -2.2 °F 92% 29.89 in 3.1 mi SW 15.0 mph - N/A Snow Light Snow
3:20 AM -0.4 °F -20.5 °F -2.2 °F 92% 29.89 in 2.5 mi SW 16.1 mph - N/A Snow Light Snow
3:50 AM -0.4 °F -20.5 °F -2.2 °F 92% 29.89 in 4.3 mi SSW 16.1 mph - N/A Snow Light Snow
4:20 AM -2.2 °F -22.9 °F -4.0 °F 92% 29.89 in 6.2 mi SW 16.1 mph - N/A   Unknown
4:50 AM -2.2 °F -24.1 °F -4.0 °F 92% 29.92 in 6.2 mi SSW 18.4 mph - N/A   Unknown
5:20 AM -2.2 °F -25.2 °F -4.0 °F 92% 29.92 in - SSW 20.7 mph - N/A   Mist
5:50 AM -2.2 °F -26.7 °F -4.0 °F 92% 29.92 in 1.2 mi SSW 24.2 mph - N/A Snow Light Snow
6:20 AM -2.2 °F -26.2 °F -4.0 °F 92% 29.95 in - SSW 23.0 mph - N/A Snow Light Snow Showers
6:50 AM -2.2 °F -28.4 °F -4.0 °F 92% 29.95 in 1.4 mi South 28.8 mph - N/A Snow Light Snow Showers
7:20 AM -4.0 °F -30.0 °F -5.8 °F 92% 29.98 in 6.2 mi SSW 26.5 mph - N/A Snow Light Snow Showers
7:50 AM -4.0 °F -28.1 °F -5.8 °F 92% 29.98 in 6.2 mi SSW 21.9 mph - N/A Snow Low Drifting Snow
8:50 AM -0.4 °F -21.2 °F -4.0 °F 85% 30.01 in 6.2 mi SSW 17.3 mph - N/A Snow Low Drifting Snow
9:50 AM -0.4 °F -15.7 °F -4.0 °F 85% 30.04 in 6.2 mi South 9.2 mph - N/A Snow Low Drifting Snow
10:50 AM -0.4 °F -16.7 °F -4.0 °F 85% 30.04 in 6.2 mi SW 10.4 mph - N/A   Partly Cloudy
11:50 AM -0.4 °F -8.3 °F -4.0 °F 85% 30.04 in 6.2 mi SSW 3.5 mph - N/A   Partly Cloudy
12:50 PM 1.4 °F -8.3 °F -2.2 °F 85% 30.04 in 6.2 mi NNE 4.6 mph - N/A   Partly Cloudy
1:50 PM 1.4 °F -8.3 °F -4.0 °F 78% 30.04 in 6.2 mi NE 4.6 mph - N/A   Partly Cloudy
2:50 PM 1.4 °F -9.9 °F -4.0 °F 78% 30.01 in 6.2 mi NNE 5.8 mph - N/A   Partly Cloudy
3:50 PM -0.4 °F -12.0 °F -4.0 °F 85% 30.01 in 6.2 mi NE 5.8 mph - N/A   Partly Cloudy
5:20 PM -0.4 °F -15.7 °F -2.2 °F 92% 29.98 in 6.2 mi NE 9.2 mph - N/A   Unknown
5:50 PM -0.4 °F -15.7 °F -2.2 °F 92% 29.98 in 6.2 mi NE 9.2 mph - N/A   Unknown
6:20 PM -0.4 °F -15.7 °F -2.2 °F 92% 29.98 in 6.2 mi NE 9.2 mph - N/A   Unknown
6:50 PM -0.4 °F -13.4 °F -2.2 °F 92% 29.98 in 6.2 mi NE 6.9 mph - N/A   Unknown
7:20 PM -0.4 °F -14.7 °F -2.2 °F 92% 29.98 in 6.2 mi NE 8.1 mph - N/A   Unknown
7:50 PM -2.2 °F -18.9 °F -5.8 °F 85% 29.95 in 6.2 mi NE 10.4 mph - N/A   Unknown
8:20 PM -2.2 °F -16.8 °F -5.8 °F 85% 29.95 in 6.2 mi NE 8.1 mph - N/A   Unknown
8:50 PM -2.2 °F -16.8 °F -4.0 °F 92% 29.95 in 6.2 mi NE 8.1 mph - N/A   Unknown
9:20 PM -2.2 °F -14.2 °F -5.8 °F 85% 29.95 in 6.2 mi ENE 5.8 mph - N/A   Unknown
9:50 PM -2.2 °F -14.2 °F -4.0 °F 92% 29.95 in 6.2 mi ENE 5.8 mph - N/A   Unknown
10:20 PM -2.2 °F -12.5 °F -4.0 °F 92% 29.95 in 6.2 mi ENE 4.6 mph - N/A   Unknown
10:50 PM -2.2 °F -12.5 °F -5.8 °F 85% 29.95 in 6.2 mi East 4.6 mph - N/A   Unknown
11:20 PM -0.4 °F -8.3 °F -5.8 °F 78% 29.92 in 6.2 mi ENE 3.5 mph - N/A   Unknown
11:50 PM -0.4 °F -8.3 °F -4.0 °F 85% 29.92 in 6.2 mi NNE 3.5 mph - N/A   Unknown